#timestamp,LO_Frequency,Hit,StdDev 
1590228015.6,286047000.2,N
1590228035.5,286047002.4,N
1590228055.3,286047002.5,N
1590228075.1,286047001.6,N
1590228095.9,286047001.5,N
1590228115.7,286047002.8,N
1590228135.5,286047003.3,N
1590228155.4,286047002.5,N
1590228175.2,286047002.7,N
1590228195.1,286047002.4,N
1590228196.0,286047002.4,N
1590228215.8,286047000.2,N
1590228235.6,286047000.1,N
1590228255.5,286047001.5,N
1590228275.3,286047001.7,N
1590228295.2,286046999.9,N
1590228315.9,286047002.3,N
1590228335.7,286046999.7,N
1590228355.6,286047002.8,N
1590228375.4,286047002.6,N
1590228395.3,286047001.7,N
1590228415.1,286047005.7,Y
1590228435.8,286047001.3,P
1590228455.7,286047002.8,P
1590228475.5,286047002.7,P
1590228495.4,286047002.6,Y
1590228515.2,286047002.4,P
1590228535.0,286047002.3,P
1590228535.9,286047002.3,P
1590228555.8,286046998.5,Y
1590228575.6,286046997.6,P
1590228595.5,286046995.4,N
1590228615.3,286046995.9,N
1590228635.1,286046996.4,N
1590228655.9,286046995.8,N
1590228675.7,286046995.9,N
1590228695.6,286046996.7,N
1590228715.4,286046998.0,N
1590228735.2,286046995.8,N
1590228755.1,286046993.4,Y
1590228756.0,286046993.4,P
1590228775.8,286046999.6,N
1590228795.7,286046998.1,N
1590228815.5,286046998.1,N
1590228835.3,286046998.9,N
1590228855.2,286046999.3,N
1590228875.9,286046998.3,N
1590228895.7,286046998.8,N
1590228915.6,286046999.7,N
1590228935.4,286047000.4,N
1590228955.3,286047000.6,N
1590228975.1,286047000.3,N
1590228976.0,286047000.3,N
1590228995.8,286047001.1,N
1590229015.7,286047000.4,N
1590229035.5,286047000.2,N
1590229055.3,286047002.4,N
1590229075.2,286047001.0,N
1590229095.0,286047000.8,N
1590229095.9,286047000.8,N
1590229115.8,286046998.3,N
1590229135.6,286046999.1,N
1590229155.4,286046999.0,N
1590229175.3,286047001.2,N
1590229195.1,286046999.1,N
1590229215.9,286047000.5,N
1590229235.7,286046998.9,N
1590229255.5,286046998.7,N
1590229275.4,286046998.8,N
1590229295.2,286046995.5,N
1590229315.1,286046993.3,Y
1590229316.0,286046993.3,P
1590229335.8,286046993.3,N
1590229355.6,286046996.8,N
1590229375.5,286046997.0,N
1590229395.3,286046998.4,N
1590229415.1,286046998.2,N
1590229435.9,286046998.7,N
1590229455.7,286046998.6,N
1590229475.6,286046999.1,N
1590229495.4,286046999.1,N
1590229515.2,286046996.6,N
1590229535.1,286046997.0,N
1590229536.0,286046997.0,N
1590229555.8,286046997.3,N
1590229575.7,286046999.6,N
1590229595.5,286046997.8,N
1590229615.3,286046997.6,N
1590229635.2,286046996.7,N
1590229655.0,286046999.4,N
1590229655.9,286046999.4,N
1590229675.8,286046998.0,N
1590229695.6,286046995.9,N
1590229715.4,286046996.0,N
1590229735.3,286046996.2,N
1590229755.1,286046995.1,N
1590229775.8,286046995.6,N
1590229795.7,286046998.0,N
1590229815.5,286046997.8,N
1590229835.4,286046995.0,Y
1590229855.2,286046994.9,P
1590229875.0,286046995.0,P
1590229875.9,286046995.0,P
1590229895.8,286046995.8,Y
1590229915.6,286047002.8,P
1590229935.5,286047004.0,N
1590229955.3,286047001.4,N
1590229975.1,286047003.4,N
1590229995.9,286047003.4,N
1590230015.7,286047003.5,N
1590230035.6,286047003.1,N
1590230055.4,286047003.1,N
1590230075.2,286047001.3,N
1590230095.1,286047002.0,N
1590230096.0,286047002.0,N
1590230115.8,286047004.2,N
1590230135.7,286047004.2,N
1590230155.5,286047004.2,N
1590230175.3,286047006.0,N
1590230195.2,286047002.9,N
1590230215.0,286047003.6,N
1590230215.9,286047003.6,N
1590230235.7,286047005.5,N
1590230255.6,286047004.1,N
1590230275.4,286047002.0,N
1590230295.3,286047002.1,N
1590230315.1,286047000.5,N
1590230335.8,286047000.4,N
1590230355.7,286047001.0,N
1590230375.5,286046999.9,N
1590230395.4,286046998.9,N
1590230415.2,286046998.2,N
1590230435.0,286047000.8,N
1590230435.9,286047000.8,N
1590230455.8,286047000.0,N
1590230475.6,286046998.5,N
1590230495.5,286046998.2,N
1590230515.3,286047000.8,N
1590230535.1,286047000.2,N
1590230555.9,286047000.8,N
1590230575.7,286047000.4,N
1590230595.5,286047001.2,N
1590230615.4,286046999.4,N
1590230635.2,286046998.7,N
1590230655.1,286047000.6,N
1590230656.0,286047000.6,N
1590230675.8,286047001.1,N
1590230695.6,286046998.7,N
1590230715.5,286046999.5,N
1590230735.3,286046995.1,N
1590230755.2,286046996.2,N
1590230775.9,286046996.0,N
1590230795.7,286046993.7,Y
1590230815.6,286046996.1,P
1590230835.4,286046996.2,N
1590230855.2,286046995.2,N
1590230875.1,286046998.0,N
1590230876.0,286046998.0,N
1590230895.8,286046995.5,N
1590230915.7,286046995.7,N
1590230935.5,286046993.3,Y
1590230955.3,286046999.5,P
1590230975.2,286046996.6,N
1590230995.0,286046996.5,N
1590230995.9,286046996.5,N
1590231015.8,286046997.7,N
1590231035.6,286046997.5,N
1590231055.5,286046995.0,Y
1590231075.3,286046999.4,P
1590231095.1,286046998.3,N
1590231115.9,286047000.8,N
1590231135.7,286047001.2,N
1590231155.5,286047000.9,N
1590231175.4,286047000.3,N
1590231195.2,286046998.5,N
1590231215.1,286046998.3,N
1590231216.0,286046998.3,N
1590231235.8,286047000.7,N
1590231255.6,286047001.0,N
1590231275.5,286046998.9,N
1590231295.3,286046999.3,N
1590231315.2,286046998.4,N
1590231335.9,286046998.4,N
1590231355.7,286046998.3,N
1590231375.6,286046999.4,N
1590231395.4,286046998.9,N
1590231415.2,286046999.3,N
1590231435.1,286046998.4,N
1590231436.0,286046998.4,N
1590231455.8,286046999.6,N
1590231475.7,286046998.3,N
1590231495.5,286046998.3,N
1590231515.3,286047000.3,N
1590231535.2,286046999.9,N
1590231555.0,286047000.3,N
1590231555.9,286047000.3,N
1590231575.8,286047000.4,N
1590231595.6,286046999.7,N
